GFSGL_prec_pwat_021.txt.gz
Precipitable_Water
1.03 1.00 0.91 0.89 0.91 0.92 0.89 0.96 1.07 1.09 0.92 0.94 1.02 1.03 1.08 1.15 1.29 1.35 1.36 1.32 1.18 1.12 1.14 1.21 1.14 1.18 1.18 1.18 1.23 1.22 1.21 1.18 1.06 1.17 1.33 1.45 1.40 1.39 1.41 1.49 1.45 1.45 1.46
0.93 0.85 0.83 0.84 0.82 0.83 0.93 1.07 1.15 1.01 0.96 1.03 1.02 1.02 1.09 1.26 1.36 1.35 1.37 1.35 1.23 1.19 1.14 1.19 1.20 1.20 1.16 1.21 1.27 1.26 1.26 1.26 1.19 1.11 1.27 1.32 1.37 1.45 1.47 1.42 1.44 1.55 1.56
0.76 0.75 0.77 0.80 0.90 0.99 1.08 1.15 1.07 0.95 0.99 1.05 1.01 1.07 1.26 1.32 1.35 1.43 1.42 1.37 1.27 1.26 1.21 1.20 1.23 1.23 1.16 1.23 1.29 1.30 1.30 1.28 1.27 1.21 1.20 1.36 1.36 1.43 1.43 1.47 1.49 1.38 1.42
0.73 0.79 0.87 0.94 1.01 1.08 1.11 1.08 0.92 0.93 1.02 1.02 1.07 1.21 1.31 1.36 1.44 1.47 1.42 1.41 1.30 1.29 1.34 1.28 1.26 1.28 1.26 1.28 1.28 1.29 1.28 1.22 1.24 1.21 1.24 1.25 1.33 1.37 1.44 1.30 1.24 1.34 1.31
0.82 0.89 0.93 1.02 1.02 1.01 1.07 0.99 0.88 0.99 1.04 1.07 1.17 1.25 1.30 1.35 1.40 1.43 1.39 1.37 1.36 1.28 1.35 1.34 1.35 1.37 1.40 1.38 1.32 1.28 1.24 1.22 1.23 1.20 1.17 1.23 1.26 1.27 1.26 1.31 1.24 1.28 1.33
0.94 0.92 1.03 1.08 1.05 1.01 1.02 0.93 0.92 1.01 1.04 1.16 1.18 1.20 1.23 1.39 1.43 1.46 1.43 1.38 1.41 1.36 1.32 1.38 1.41 1.41 1.40 1.37 1.34 1.32 1.32 1.27 1.23 1.19 1.15 1.10 1.20 1.27 1.31 1.27 1.23 1.21 1.14
0.97 1.04 1.09 1.07 1.00 1.00 0.97 0.95 0.98 1.01 1.09 1.16 1.15 1.16 1.18 1.28 1.43 1.47 1.45 1.42 1.43 1.40 1.41 1.43 1.41 1.42 1.41 1.36 1.34 1.33 1.34 1.36 1.34 1.27 1.22 1.24 1.26 1.30 1.30 1.24 1.24 1.20 1.19
1.03 1.05 1.10 1.06 1.04 1.09 1.07 1.02 1.03 1.07 1.06 1.11 1.07 1.10 1.15 1.23 1.36 1.43 1.46 1.43 1.43 1.45 1.46 1.46 1.43 1.42 1.43 1.40 1.37 1.30 1.33 1.36 1.38 1.39 1.36 1.34 1.34 1.35 1.32 1.29 1.28 1.28 1.28
0.96 1.04 1.03 1.02 1.03 1.09 1.08 1.10 1.10 1.07 1.06 1.05 1.06 1.08 1.11 1.20 1.33 1.40 1.47 1.42 1.43 1.43 1.47 1.48 1.46 1.40 1.41 1.41 1.35 1.30 1.31 1.35 1.43 1.41 1.40 1.39 1.38 1.38 1.39 1.32 1.19 1.09 0.81
0.95 1.00 0.96 0.97 1.00 1.08 1.18 1.23 1.26 1.15 1.09 1.05 1.09 1.11 1.10 1.16 1.32 1.41 1.46 1.43 1.38 1.40 1.43 1.45 1.42 1.37 1.38 1.36 1.31 1.29 1.22 1.28 1.32 1.34 1.37 1.37 1.39 1.39 1.33 1.20 1.04 0.71 0.54
0.99 0.93 0.94 1.01 1.03 1.10 1.18 1.27 1.30 1.28 1.21 1.16 1.13 1.11 1.13 1.23 1.32 1.40 1.45 1.43 1.41 1.40 1.37 1.36 1.38 1.35 1.32 1.31 1.29 1.27 1.26 1.32 1.31 1.29 1.30 1.29 1.28 1.24 1.18 1.10 0.96 0.74 0.56
0.94 0.87 0.96 1.03 1.05 1.12 1.16 1.21 1.28 1.29 1.24 1.19 1.15 1.13 1.14 1.23 1.31 1.40 1.42 1.46 1.45 1.39 1.36 1.37 1.37 1.35 1.33 1.31 1.29 1.28 1.30 1.29 1.25 1.23 1.21 1.15 1.07 1.01 0.97 0.89 0.80 0.77 0.76
0.85 0.83 0.91 0.98 0.96 1.02 1.09 1.14 1.19 1.22 1.17 1.15 1.13 1.11 1.03 1.17 1.27 1.35 1.39 1.38 1.44 1.43 1.42 1.39 1.37 1.36 1.34 1.32 1.32 1.29 1.30 1.24 1.18 1.11 1.02 0.93 0.84 0.76 0.74 0.74 0.76 0.81 0.82
0.81 0.81 0.86 0.92 0.90 0.94 0.94 1.15 1.17 1.11 1.10 1.13 1.12 1.03 0.97 1.11 1.25 1.32 1.34 1.36 1.39 1.43 1.43 1.41 1.39 1.38 1.36 1.35 1.33 1.30 1.27 1.19 1.09 0.98 0.92 0.83 0.81 0.75 0.74 0.86 0.86 0.89 0.86
0.77 0.79 0.80 0.87 0.87 0.81 0.81 1.07 1.19 1.16 1.13 1.04 1.06 1.06 1.03 1.10 1.26 1.33 1.32 1.32 1.34 1.38 1.39 1.38 1.34 1.31 1.27 1.27 1.26 1.23 1.17 1.13 1.03 0.98 0.89 0.79 0.76 0.80 0.79 0.89 0.92 0.95 0.87
0.70 0.73 0.74 0.77 0.81 0.77 0.69 0.81 1.10 1.15 1.22 1.26 1.26 1.21 1.23 1.30 1.35 1.34 1.34 1.29 1.23 1.25 1.23 1.19 1.20 1.20 1.17 1.15 1.11 1.10 1.09 1.03 1.00 0.96 0.90 0.85 0.79 0.78 0.80 0.87 0.89 0.87 0.83
0.64 0.71 0.74 0.76 0.76 0.74 0.68 0.60 0.71 0.91 1.08 1.15 1.16 1.19 1.17 1.21 1.25 1.25 1.25 1.21 1.15 1.06 0.97 1.02 1.05 1.07 1.06 1.05 1.03 1.01 0.98 1.00 1.01 0.95 0.91 0.87 0.87 0.87 0.85 0.84 0.83 0.84 0.83
0.65 0.69 0.73 0.73 0.74 0.75 0.70 0.61 0.63 0.65 0.73 0.82 1.03 1.07 1.08 1.04 1.09 1.09 1.09 1.08 0.98 0.95 0.87 0.82 0.85 0.93 0.97 0.96 0.96 0.96 0.97 0.98 0.97 0.95 0.92 0.89 0.85 0.81 0.79 0.80 0.85 0.84 0.82
0.62 0.65 0.72 0.74 0.75 0.75 0.73 0.67 0.60 0.60 0.62 0.65 0.82 0.91 0.96 0.95 0.96 0.99 1.00 0.92 0.88 0.86 0.84 0.77 0.75 0.79 0.84 0.92 0.96 0.97 0.96 0.93 0.91 0.88 0.86 0.83 0.82 0.80 0.77 0.78 0.81 0.81 0.83
0.63 0.62 0.64 0.70 0.72 0.72 0.72 0.67 0.64 0.61 0.58 0.59 0.60 0.66 0.76 0.82 0.78 0.78 0.85 0.87 0.83 0.83 0.85 0.85 0.83 0.75 0.72 0.79 0.80 0.83 0.85 0.85 0.84 0.84 0.84 0.87 0.90 0.93 0.90 0.91 0.92 0.90 0.90
0.69 0.67 0.63 0.64 0.65 0.67 0.66 0.63 0.62 0.63 0.61 0.61 0.63 0.70 0.71 0.66 0.61 0.62 0.65 0.72 0.75 0.77 0.77 0.79 0.83 0.84 0.82 0.72 0.72 0.76 0.73 0.74 0.79 0.84 0.89 0.95 1.00 0.99 1.01 1.00 0.99 0.99 0.97
0.78 0.75 0.77 0.76 0.78 0.79 0.80 0.78 0.68 0.62 0.62 0.63 0.65 0.69 0.74 0.75 0.75 0.72 0.69 0.64 0.63 0.67 0.76 0.78 0.77 0.79 0.83 0.86 0.83 0.76 0.77 0.79 0.82 0.85 0.87 0.87 0.87 0.87 0.86 0.87 0.89 0.90 0.90
0.99 0.95 0.87 0.86 0.87 0.88 0.88 0.87 0.85 0.83 0.76 0.70 0.67 0.65 0.67 0.69 0.73 0.75 0.74 0.75 0.73 0.67 0.65 0.64 0.67 0.74 0.79 0.80 0.81 0.82 0.78 0.74 0.76 0.82 0.82 0.83 0.84 0.86 0.88 0.87 0.88 0.89 0.90
1.11 1.06 1.01 0.98 0.91 0.87 0.86 0.85 0.86 0.86 0.86 0.86 0.82 0.76 0.71 0.68 0.67 0.67 0.69 0.73 0.75 0.75 0.74 0.68 0.61 0.58 0.58 0.64 0.72 0.77 0.79 0.82 0.86 0.89 0.93 0.93 0.92 0.94 0.96 0.96 0.96 0.96 0.96
1.19 1.15 1.11 1.10 1.07 1.05 0.97 0.91 0.89 0.88 0.88 0.89 0.88 0.87 0.86 0.81 0.75 0.74 0.72 0.72 0.71 0.72 0.73 0.74 0.72 0.65 0.61 0.57 0.57 0.60 0.64 0.71 0.80 0.86 0.92 0.95 0.95 0.95 0.94 0.94 0.94 0.96 0.97
1.11 1.13 1.12 1.13 1.13 1.13 1.11 1.07 1.06 1.02 0.95 0.94 0.93 0.94 0.94 0.92 0.88 0.85 0.81 0.77 0.73 0.69 0.69 0.70 0.72 0.71 0.68 0.66 0.67 0.72 0.73 0.70 0.68 0.68 0.70 0.71 0.74 0.82 0.87 0.88 0.89 0.89 0.91

GFSGL_prec_pwat_024.txt.gz
Precipitable_Water
1.04 1.06 1.04 1.02 0.97 0.96 0.93 0.94 0.96 1.01 1.08 0.97 0.94 1.01 1.04 1.11 1.20 1.26 1.35 1.38 1.29 1.18 1.16 1.18 1.13 1.15 1.15 1.23 1.25 1.24 1.18 1.17 1.01 1.12 1.20 1.34 1.35 1.32 1.33 1.43 1.44 1.39 1.37
0.97 0.93 0.87 0.86 0.87 0.89 0.88 0.92 1.03 1.07 0.99 0.95 1.04 1.02 1.04 1.14 1.29 1.33 1.34 1.40 1.31 1.22 1.15 1.14 1.18 1.18 1.15 1.18 1.21 1.21 1.21 1.23 1.13 1.08 1.21 1.27 1.30 1.39 1.37 1.35 1.37 1.40 1.40
0.85 0.78 0.77 0.77 0.76 0.79 0.90 1.02 1.12 1.07 0.93 1.01 1.02 0.99 1.16 1.29 1.32 1.41 1.43 1.39 1.32 1.28 1.21 1.18 1.20 1.17 1.14 1.19 1.27 1.28 1.27 1.29 1.28 1.21 1.18 1.31 1.34 1.40 1.38 1.37 1.32 1.33 1.51
0.70 0.68 0.71 0.79 0.89 0.99 1.06 1.09 1.09 0.97 0.95 1.04 1.03 1.11 1.27 1.34 1.40 1.45 1.41 1.40 1.37 1.27 1.32 1.23 1.25 1.24 1.20 1.22 1.28 1.31 1.31 1.27 1.27 1.22 1.20 1.22 1.26 1.38 1.41 1.28 1.27 1.34 1.31
0.68 0.75 0.84 0.93 0.99 1.02 1.05 1.05 0.93 0.93 1.02 1.08 1.08 1.21 1.28 1.36 1.38 1.42 1.39 1.37 1.36 1.30 1.33 1.33 1.34 1.33 1.34 1.37 1.31 1.30 1.30 1.24 1.22 1.20 1.18 1.22 1.25 1.27 1.24 1.31 1.27 1.29 1.35
0.79 0.87 0.96 1.06 1.05 1.02 1.05 0.98 0.91 0.98 1.03 1.09 1.13 1.19 1.21 1.37 1.43 1.45 1.45 1.39 1.40 1.33 1.30 1.35 1.39 1.35 1.35 1.37 1.37 1.37 1.31 1.22 1.20 1.20 1.20 1.16 1.23 1.28 1.32 1.28 1.22 1.15 1.11
0.90 1.00 1.05 1.10 1.04 1.02 1.05 0.96 0.95 0.99 1.07 1.12 1.14 1.16 1.16 1.30 1.39 1.45 1.46 1.42 1.40 1.37 1.37 1.38 1.37 1.38 1.36 1.32 1.32 1.32 1.31 1.34 1.35 1.27 1.19 1.23 1.24 1.32 1.34 1.25 1.23 1.22 1.19
0.99 1.04 1.10 1.09 1.06 1.03 0.97 0.96 0.99 1.05 1.07 1.08 1.09 1.12 1.19 1.27 1.37 1.44 1.44 1.42 1.43 1.44 1.44 1.42 1.38 1.37 1.37 1.34 1.29 1.27 1.29 1.33 1.32 1.31 1.32 1.30 1.36 1.39 1.38 1.31 1.29 1.24 1.26
1.00 1.03 1.06 1.03 1.07 1.09 1.05 1.04 1.05 1.07 1.05 1.06 1.07 1.11 1.19 1.24 1.37 1.45 1.43 1.43 1.40 1.42 1.46 1.47 1.42 1.38 1.38 1.37 1.31 1.25 1.26 1.29 1.39 1.40 1.41 1.44 1.41 1.41 1.36 1.30 1.22 1.15 1.03
0.99 1.01 0.96 1.05 1.05 1.09 1.16 1.16 1.14 1.10 1.04 1.04 1.06 1.16 1.15 1.21 1.36 1.47 1.46 1.43 1.37 1.39 1.42 1.40 1.41 1.39 1.39 1.38 1.33 1.26 1.21 1.27 1.32 1.33 1.36 1.37 1.38 1.37 1.36 1.34 1.23 0.96 0.71
1.01 0.96 0.96 1.02 1.08 1.17 1.23 1.28 1.27 1.17 1.11 1.05 1.10 1.13 1.13 1.26 1.35 1.46 1.48 1.44 1.40 1.36 1.33 1.31 1.35 1.37 1.37 1.37 1.35 1.32 1.27 1.34 1.32 1.30 1.30 1.32 1.34 1.31 1.30 1.24 1.05 0.77 0.52
1.00 0.96 1.00 1.04 1.11 1.19 1.21 1.27 1.32 1.29 1.17 1.16 1.15 1.13 1.17 1.28 1.36 1.42 1.47 1.47 1.46 1.38 1.28 1.30 1.29 1.32 1.32 1.33 1.31 1.31 1.30 1.31 1.29 1.25 1.23 1.23 1.18 1.14 1.07 0.96 0.86 0.73 0.70
0.93 0.91 0.97 0.98 1.01 1.14 1.18 1.17 1.25 1.25 1.17 1.17 1.15 1.12 1.08 1.23 1.31 1.39 1.40 1.44 1.45 1.39 1.35 1.32 1.30 1.29 1.28 1.28 1.27 1.26 1.25 1.23 1.23 1.18 1.14 1.11 1.06 1.02 0.99 0.89 0.82 0.78 0.79
0.85 0.87 0.91 0.90 0.94 0.98 1.13 1.18 1.21 1.19 1.13 1.15 1.15 1.09 1.01 1.15 1.24 1.35 1.35 1.39 1.42 1.39 1.34 1.33 1.32 1.31 1.30 1.27 1.26 1.26 1.25 1.22 1.16 1.07 0.98 0.96 0.98 0.91 0.80 0.74 0.69 0.75 0.78
0.84 0.84 0.85 0.87 0.88 0.85 1.04 1.14 1.17 1.19 1.18 1.14 1.12 1.05 1.01 1.11 1.25 1.34 1.35 1.35 1.40 1.38 1.34 1.31 1.27 1.25 1.23 1.21 1.23 1.23 1.19 1.14 1.04 0.97 0.84 0.75 0.69 0.66 0.67 0.79 0.81 0.79 0.75
0.75 0.80 0.79 0.80 0.83 0.81 0.85 1.07 1.16 1.18 1.20 1.19 1.20 1.21 1.22 1.30 1.34 1.35 1.35 1.36 1.39 1.40 1.33 1.24 1.20 1.19 1.19 1.16 1.13 1.11 1.09 1.04 0.98 0.93 0.83 0.76 0.69 0.66 0.69 0.78 0.86 0.87 0.85
0.70 0.75 0.77 0.78 0.81 0.79 0.73 0.82 0.94 1.05 1.22 1.26 1.28 1.28 1.28 1.31 1.34 1.31 1.22 1.19 1.25 1.30 1.25 1.23 1.21 1.19 1.15 1.13 1.10 1.06 1.00 1.01 0.99 0.91 0.82 0.75 0.72 0.77 0.78 0.76 0.79 0.85 0.84
0.70 0.73 0.77 0.77 0.79 0.78 0.74 0.63 0.80 0.88 0.91 0.98 1.14 1.16 1.16 1.20 1.24 1.22 1.17 1.09 0.95 1.02 1.07 1.08 1.08 1.10 1.08 1.05 1.05 1.02 1.00 1.00 0.97 0.92 0.87 0.83 0.80 0.77 0.74 0.75 0.77 0.80 0.83
0.67 0.69 0.74 0.78 0.79 0.79 0.78 0.69 0.63 0.68 0.75 0.82 0.95 1.02 1.05 1.03 1.08 1.08 1.08 0.99 0.90 0.85 0.84 0.89 0.95 1.00 1.01 1.01 1.01 1.02 1.02 1.00 0.99 0.96 0.94 0.90 0.87 0.84 0.81 0.80 0.79 0.81 0.84
0.68 0.67 0.68 0.69 0.74 0.77 0.78 0.73 0.65 0.59 0.59 0.63 0.69 0.81 0.87 0.89 0.84 0.90 0.94 0.94 0.92 0.90 0.88 0.80 0.81 0.89 0.94 0.99 1.02 1.01 1.00 0.98 0.97 0.97 0.96 0.95 0.93 0.89 0.83 0.81 0.80 0.78 0.78
0.66 0.68 0.68 0.71 0.70 0.70 0.73 0.72 0.70 0.65 0.61 0.59 0.61 0.69 0.72 0.69 0.68 0.70 0.73 0.81 0.84 0.84 0.86 0.88 0.89 0.85 0.78 0.83 0.91 0.94 0.95 0.95 0.96 0.95 0.93 0.91 0.90 0.84 0.85 0.87 0.89 0.93 0.97
0.65 0.65 0.67 0.67 0.71 0.74 0.76 0.78 0.75 0.69 0.64 0.64 0.65 0.68 0.73 0.75 0.75 0.74 0.74 0.72 0.70 0.72 0.80 0.82 0.81 0.85 0.85 0.83 0.76 0.69 0.73 0.79 0.85 0.88 0.86 0.86 0.87 0.89 0.94 0.98 1.00 1.00 0.98
0.80 0.72 0.69 0.72 0.79 0.83 0.85 0.84 0.84 0.84 0.79 0.71 0.69 0.68 0.69 0.71 0.73 0.73 0.74 0.78 0.81 0.81 0.79 0.71 0.69 0.74 0.82 0.83 0.86 0.86 0.80 0.72 0.72 0.76 0.74 0.76 0.80 0.84 0.87 0.87 0.86 0.84 0.84
1.11 1.00 0.93 0.90 0.87 0.83 0.85 0.88 0.90 0.90 0.89 0.86 0.82 0.77 0.73 0.73 0.72 0.72 0.74 0.77 0.78 0.80 0.84 0.84 0.81 0.72 0.66 0.67 0.74 0.80 0.80 0.81 0.83 0.80 0.77 0.76 0.77 0.81 0.83 0.83 0.84 0.85 0.89
1.15 1.10 1.13 1.09 1.06 1.04 0.99 0.94 0.91 0.89 0.90 0.90 0.90 0.90 0.88 0.85 0.82 0.79 0.79 0.80 0.78 0.76 0.77 0.79 0.81 0.80 0.81 0.78 0.70 0.64 0.63 0.66 0.71 0.74 0.76 0.77 0.78 0.82 0.84 0.86 0.88 0.91 0.92
1.09 1.12 1.13 1.16 1.18 1.20 1.18 1.17 1.17 1.14 1.07 1.05 1.02 0.99 1.00 1.00 0.97 0.94 0.92 0.89 0.86 0.84 0.83 0.81 0.78 0.77 0.77 0.79 0.81 0.80 0.75 0.69 0.66 0.64 0.67 0.68 0.67 0.72 0.78 0.80 0.80 0.81 0.87

GFSGL_prec_pwat_030.txt.gz
Precipitable_Water
1.25 1.30 1.29 1.27 1.27 1.27 1.24 1.22 1.16 1.09 1.01 0.96 0.98 1.06 1.04 0.99 1.08 1.16 1.22 1.30 1.37 1.42 1.37 1.27 1.24 1.24 1.23 1.23 1.26 1.34 1.34 1.30 1.17 1.30 1.35 1.36 1.29 1.25 1.27 1.39 1.38 1.23 1.28
1.20 1.18 1.17 1.17 1.17 1.14 1.10 1.05 0.95 0.89 0.93 0.99 1.02 1.00 1.01 1.09 1.16 1.21 1.28 1.38 1.41 1.36 1.36 1.21 1.22 1.22 1.21 1.28 1.29 1.26 1.29 1.35 1.23 1.10 1.18 1.20 1.21 1.33 1.26 1.36 1.32 1.26 1.28
1.12 1.09 1.07 1.03 1.01 0.95 0.90 0.89 0.88 0.93 0.99 1.00 1.02 1.03 1.04 1.13 1.29 1.36 1.42 1.38 1.36 1.41 1.39 1.19 1.21 1.24 1.18 1.26 1.29 1.26 1.26 1.31 1.31 1.17 1.08 1.16 1.19 1.27 1.24 1.33 1.37 1.35 1.33
1.02 0.94 0.87 0.88 0.89 0.90 0.88 0.87 0.96 1.03 1.01 1.00 1.04 1.05 1.19 1.30 1.33 1.41 1.38 1.45 1.44 1.45 1.38 1.26 1.27 1.27 1.22 1.25 1.25 1.26 1.32 1.30 1.24 1.17 1.12 1.16 1.22 1.26 1.25 1.20 1.27 1.35 1.30
0.84 0.76 0.77 0.81 0.86 0.91 0.95 1.04 1.09 1.04 0.99 1.04 1.07 1.18 1.28 1.34 1.32 1.41 1.45 1.44 1.37 1.41 1.38 1.32 1.30 1.33 1.28 1.27 1.31 1.30 1.30 1.26 1.19 1.14 1.14 1.16 1.17 1.19 1.16 1.25 1.23 1.24 1.26
0.73 0.80 0.89 0.93 0.98 1.06 1.11 1.11 1.06 1.02 1.06 1.12 1.12 1.20 1.27 1.29 1.37 1.42 1.45 1.39 1.41 1.34 1.29 1.38 1.34 1.31 1.25 1.30 1.34 1.37 1.41 1.27 1.20 1.15 1.14 1.13 1.14 1.20 1.31 1.27 1.18 1.15 1.11
0.83 0.91 0.97 1.02 1.04 1.09 1.10 1.09 1.01 1.05 1.13 1.14 1.16 1.19 1.23 1.31 1.37 1.44 1.45 1.45 1.42 1.37 1.33 1.34 1.27 1.31 1.32 1.34 1.37 1.38 1.38 1.36 1.33 1.26 1.16 1.18 1.18 1.27 1.35 1.26 1.23 1.18 1.20
0.89 0.99 1.03 1.07 1.07 1.11 1.03 1.01 1.05 1.12 1.14 1.15 1.20 1.21 1.23 1.28 1.39 1.43 1.46 1.48 1.43 1.42 1.39 1.38 1.35 1.32 1.34 1.35 1.36 1.35 1.33 1.33 1.34 1.35 1.33 1.31 1.36 1.41 1.42 1.35 1.34 1.31 1.31
0.97 1.03 1.02 1.00 1.03 1.07 0.98 1.03 1.09 1.13 1.11 1.18 1.18 1.19 1.24 1.31 1.42 1.45 1.46 1.44 1.42 1.43 1.44 1.43 1.40 1.35 1.31 1.34 1.33 1.25 1.25 1.30 1.42 1.42 1.43 1.44 1.46 1.45 1.42 1.34 1.27 1.21 1.15
1.04 1.03 0.99 1.04 0.98 0.97 1.00 1.03 1.13 1.13 1.09 1.17 1.11 1.24 1.20 1.30 1.40 1.47 1.50 1.46 1.40 1.40 1.44 1.42 1.40 1.38 1.34 1.33 1.29 1.23 1.18 1.26 1.30 1.32 1.38 1.40 1.42 1.43 1.41 1.39 1.32 1.18 1.16
1.02 0.99 1.05 1.12 1.12 1.17 1.17 1.19 1.18 1.16 1.12 1.12 1.15 1.23 1.20 1.38 1.43 1.49 1.50 1.48 1.42 1.37 1.33 1.30 1.34 1.37 1.35 1.35 1.33 1.27 1.25 1.31 1.30 1.30 1.33 1.35 1.37 1.38 1.39 1.39 1.36 1.28 1.12
0.94 1.01 1.08 1.15 1.20 1.26 1.26 1.25 1.20 1.14 1.08 1.10 1.16 1.15 1.26 1.39 1.44 1.48 1.49 1.49 1.45 1.34 1.30 1.32 1.34 1.35 1.35 1.34 1.33 1.31 1.32 1.32 1.30 1.27 1.27 1.28 1.29 1.31 1.33 1.38 1.35 1.22 1.13
0.96 0.96 0.99 1.07 1.15 1.29 1.30 1.33 1.30 1.27 1.19 1.23 1.16 1.19 1.18 1.33 1.42 1.46 1.45 1.45 1.39 1.32 1.34 1.34 1.34 1.36 1.36 1.35 1.34 1.33 1.36 1.34 1.30 1.25 1.24 1.27 1.30 1.33 1.35 1.27 1.16 1.07 0.95
0.93 0.93 1.02 0.99 1.09 1.24 1.33 1.36 1.33 1.27 1.26 1.23 1.17 1.17 1.13 1.25 1.35 1.39 1.42 1.40 1.34 1.30 1.29 1.31 1.33 1.34 1.34 1.32 1.31 1.34 1.37 1.34 1.30 1.27 1.27 1.29 1.32 1.30 1.15 1.06 0.91 0.82 0.77
0.95 0.91 0.94 0.95 1.06 1.18 1.30 1.33 1.30 1.34 1.31 1.25 1.22 1.15 1.09 1.17 1.32 1.40 1.41 1.36 1.30 1.29 1.28 1.28 1.23 1.22 1.21 1.22 1.25 1.26 1.28 1.26 1.25 1.26 1.24 1.24 1.20 1.05 0.94 0.87 0.78 0.71 0.69
0.91 0.87 0.88 0.93 1.03 1.11 1.16 1.18 1.24 1.26 1.30 1.31 1.22 1.15 1.20 1.33 1.37 1.39 1.42 1.39 1.32 1.29 1.25 1.18 1.16 1.16 1.15 1.18 1.22 1.24 1.26 1.25 1.23 1.22 1.16 1.06 0.93 0.83 0.74 0.71 0.73 0.69 0.68
0.86 0.86 0.83 0.96 1.07 1.01 1.13 1.13 1.04 1.13 1.17 1.19 1.21 1.23 1.28 1.33 1.38 1.39 1.40 1.39 1.33 1.30 1.22 1.18 1.14 1.15 1.14 1.16 1.16 1.17 1.12 1.18 1.13 0.99 0.93 0.88 0.86 0.84 0.77 0.69 0.69 0.70 0.71
0.87 0.81 0.83 0.90 1.03 1.04 1.07 1.19 1.17 1.17 1.12 1.15 1.25 1.26 1.31 1.31 1.30 1.34 1.39 1.38 1.28 1.29 1.24 1.19 1.15 1.15 1.15 1.15 1.13 1.07 1.01 1.01 0.98 0.95 0.92 0.90 0.86 0.80 0.72 0.68 0.69 0.71 0.74
0.84 0.78 0.88 0.90 0.96 1.00 0.95 1.09 1.16 1.18 1.21 1.19 1.18 1.19 1.18 1.14 1.11 1.16 1.25 1.26 1.24 1.25 1.25 1.21 1.19 1.16 1.13 1.12 1.11 1.09 1.04 0.98 0.93 0.87 0.82 0.77 0.75 0.72 0.67 0.65 0.72 0.73 0.77
0.84 0.82 0.89 0.89 0.88 0.89 0.86 0.80 0.93 0.96 0.99 1.05 1.07 1.06 1.11 1.10 1.02 0.97 0.96 1.03 1.08 1.13 1.17 1.15 1.14 1.12 1.10 1.09 1.09 1.08 1.04 1.00 0.94 0.92 0.88 0.84 0.79 0.75 0.73 0.74 0.75 0.75 0.76
0.79 0.77 0.80 0.86 0.86 0.88 0.87 0.81 0.72 0.72 0.78 0.84 0.95 0.95 0.96 0.99 0.98 0.97 0.97 0.98 0.92 0.91 0.99 1.06 1.08 1.10 1.10 1.08 1.08 1.07 1.04 1.04 1.03 1.01 1.00 0.98 0.95 0.89 0.89 0.87 0.85 0.85 0.85
0.80 0.79 0.75 0.78 0.84 0.85 0.88 0.90 0.87 0.78 0.74 0.71 0.78 0.77 0.83 0.92 0.92 0.91 0.93 0.96 1.01 1.04 1.03 0.97 0.92 0.92 0.99 1.05 1.07 1.07 1.04 1.01 1.02 1.04 1.03 1.03 1.02 1.00 0.99 0.97 0.96 0.94 0.93
0.78 0.78 0.79 0.79 0.81 0.83 0.80 0.86 0.88 0.89 0.86 0.82 0.82 0.74 0.75 0.79 0.89 0.90 0.90 0.92 0.95 0.94 0.94 0.94 0.96 0.98 1.01 1.00 0.98 0.92 0.88 0.92 1.00 1.04 1.01 1.00 0.99 0.99 0.99 0.96 0.95 0.93 0.91
0.88 0.81 0.79 0.82 0.83 0.81 0.82 0.86 0.91 0.92 0.95 0.94 0.91 0.87 0.81 0.83 0.88 0.92 0.98 1.02 1.03 1.02 1.02 1.00 0.99 0.95 0.92 0.92 0.94 0.97 0.98 0.98 0.97 0.93 0.94 0.92 0.90 0.90 0.88 0.86 0.85 0.83 0.82
1.01 0.93 0.83 0.80 0.80 0.79 0.80 0.86 0.90 0.93 0.94 0.96 0.98 0.98 1.00 0.99 0.97 0.96 0.96 0.97 0.98 1.00 1.03 1.05 1.06 1.05 1.06 1.06 1.05 1.03 1.01 0.94 0.90 0.90 0.93 0.91 0.87 0.85 0.83 0.82 0.81 0.78 0.76
1.09 1.11 1.04 1.02 0.99 0.92 0.88 0.89 0.90 0.92 0.94 0.97 0.99 1.00 0.99 0.98 0.99 1.00 0.99 0.98 0.99 1.00 1.01 1.03 1.05 1.07 1.07 1.01 0.94 0.96 1.00 1.01 1.02 1.03 1.02 0.94 0.86 0.83 0.83 0.80 0.78 0.76 0.74

GFSGL_prec_pwat_033.txt.gz
Precipitable_Water
1.27 1.30 1.32 1.36 1.40 1.43 1.40 1.41 1.38 1.35 1.32 1.25 1.15 1.03 1.00 1.07 1.13 1.02 1.16 1.22 1.22 1.31 1.44 1.43 1.31 1.29 1.23 1.23 1.27 1.28 1.26 1.25 1.11 1.32 1.45 1.50 1.42 1.38 1.29 1.45 1.47 1.13 1.17
1.32 1.35 1.37 1.38 1.36 1.30 1.29 1.27 1.23 1.15 1.09 0.99 0.97 1.01 1.05 1.06 1.09 1.13 1.18 1.29 1.37 1.41 1.45 1.41 1.25 1.30 1.21 1.28 1.26 1.36 1.34 1.37 1.21 1.23 1.36 1.29 1.34 1.41 1.32 1.38 1.33 1.25 1.21
1.33 1.28 1.23 1.19 1.17 1.14 1.11 1.08 1.01 0.92 0.90 0.95 0.98 1.01 1.03 1.09 1.14 1.24 1.39 1.44 1.47 1.38 1.38 1.38 1.21 1.27 1.19 1.29 1.30 1.33 1.39 1.40 1.38 1.25 1.13 1.25 1.29 1.36 1.20 1.32 1.26 1.18 1.31
1.15 1.12 1.09 1.07 1.03 0.99 0.96 0.91 0.88 0.89 0.93 1.00 1.04 1.04 1.06 1.19 1.31 1.38 1.45 1.39 1.50 1.38 1.46 1.41 1.23 1.30 1.23 1.26 1.30 1.34 1.37 1.36 1.35 1.16 1.09 1.08 1.12 1.22 1.21 1.20 1.12 1.17 1.19
1.06 1.03 0.94 0.93 0.95 0.92 0.88 0.86 0.91 1.01 1.05 1.04 1.03 1.12 1.22 1.30 1.38 1.34 1.44 1.45 1.48 1.43 1.44 1.43 1.34 1.36 1.34 1.35 1.31 1.35 1.40 1.34 1.23 1.12 1.05 1.06 1.07 1.11 1.07 1.21 1.21 1.24 1.24
0.95 0.82 0.83 0.85 0.88 0.91 0.94 1.04 1.09 1.05 1.04 1.08 1.07 1.17 1.27 1.37 1.29 1.34 1.44 1.43 1.37 1.39 1.40 1.40 1.40 1.36 1.30 1.22 1.32 1.37 1.43 1.30 1.16 1.12 1.10 1.08 1.14 1.16 1.19 1.18 1.24 1.17 1.06
0.84 0.83 0.90 0.96 1.01 1.08 1.12 1.11 1.07 1.07 1.11 1.17 1.17 1.18 1.29 1.27 1.28 1.40 1.45 1.45 1.45 1.40 1.34 1.44 1.32 1.33 1.25 1.25 1.29 1.33 1.38 1.36 1.33 1.26 1.17 1.19 1.17 1.24 1.25 1.20 1.20 1.16 1.12
0.84 0.90 0.97 1.01 1.05 1.11 1.14 1.06 1.05 1.14 1.17 1.24 1.23 1.27 1.31 1.20 1.36 1.41 1.46 1.46 1.45 1.42 1.36 1.36 1.35 1.28 1.31 1.31 1.33 1.33 1.34 1.36 1.33 1.32 1.30 1.31 1.34 1.36 1.45 1.37 1.28 1.22 1.27
0.88 0.97 0.98 1.03 1.06 1.02 1.03 1.03 1.08 1.13 1.22 1.22 1.31 1.26 1.26 1.27 1.39 1.45 1.48 1.45 1.40 1.39 1.41 1.41 1.39 1.35 1.35 1.36 1.34 1.31 1.28 1.27 1.35 1.37 1.37 1.38 1.40 1.41 1.42 1.37 1.23 1.16 1.16
0.98 0.95 0.99 1.03 1.05 0.98 1.01 1.04 1.13 1.16 1.21 1.22 1.25 1.27 1.21 1.25 1.36 1.45 1.49 1.44 1.36 1.35 1.41 1.39 1.39 1.36 1.34 1.37 1.33 1.28 1.19 1.23 1.27 1.28 1.32 1.38 1.44 1.45 1.45 1.43 1.35 1.20 1.21
0.99 1.02 0.99 1.02 1.05 1.05 1.06 1.12 1.14 1.14 1.13 1.23 1.20 1.29 1.20 1.34 1.42 1.49 1.49 1.45 1.40 1.36 1.34 1.35 1.35 1.35 1.34 1.36 1.34 1.28 1.26 1.33 1.31 1.32 1.31 1.34 1.38 1.38 1.40 1.43 1.41 1.34 1.23
1.02 1.02 1.08 1.09 1.11 1.18 1.21 1.19 1.20 1.19 1.17 1.18 1.23 1.14 1.25 1.40 1.45 1.47 1.49 1.48 1.43 1.32 1.26 1.30 1.32 1.35 1.34 1.33 1.31 1.28 1.31 1.32 1.29 1.28 1.27 1.26 1.30 1.31 1.35 1.40 1.39 1.37 1.36
1.03 1.02 1.05 1.13 1.19 1.26 1.29 1.24 1.18 1.13 1.12 1.16 1.18 1.19 1.20 1.34 1.43 1.44 1.44 1.43 1.38 1.31 1.32 1.32 1.32 1.33 1.31 1.31 1.28 1.28 1.30 1.27 1.24 1.22 1.23 1.28 1.34 1.38 1.38 1.36 1.36 1.34 1.23
0.96 0.96 1.01 1.05 1.20 1.29 1.33 1.38 1.36 1.30 1.28 1.31 1.24 1.24 1.20 1.27 1.35 1.39 1.39 1.34 1.31 1.29 1.31 1.30 1.32 1.33 1.32 1.31 1.32 1.32 1.31 1.30 1.27 1.26 1.28 1.33 1.36 1.33 1.35 1.35 1.20 1.05 0.92
0.99 1.01 1.00 0.92 1.21 1.27 1.39 1.44 1.41 1.40 1.40 1.32 1.29 1.29 1.15 1.19 1.32 1.38 1.38 1.30 1.26 1.27 1.28 1.28 1.27 1.27 1.23 1.25 1.28 1.31 1.33 1.33 1.29 1.32 1.30 1.29 1.30 1.30 1.23 1.12 0.97 0.85 0.78
0.89 0.96 0.87 1.02 1.10 1.20 1.23 1.21 1.32 1.31 1.34 1.36 1.30 1.27 1.23 1.32 1.37 1.39 1.37 1.30 1.28 1.27 1.22 1.18 1.16 1.16 1.15 1.19 1.23 1.25 1.28 1.29 1.31 1.30 1.30 1.25 1.18 1.13 1.01 0.94 0.87 0.77 0.72
0.92 0.95 0.90 1.03 1.11 1.08 1.17 1.14 1.09 1.23 1.28 1.23 1.17 1.20 1.26 1.33 1.37 1.38 1.36 1.30 1.27 1.30 1.21 1.16 1.15 1.16 1.21 1.24 1.21 1.22 1.22 1.29 1.32 1.26 1.23 1.18 1.07 0.95 0.84 0.77 0.73 0.71 0.67
1.03 0.84 0.98 1.06 1.05 1.12 1.16 1.13 1.14 1.07 1.07 1.11 1.22 1.26 1.32 1.36 1.37 1.38 1.37 1.29 1.22 1.28 1.23 1.16 1.15 1.17 1.22 1.24 1.24 1.25 1.22 1.21 1.19 1.14 1.08 1.00 0.92 0.84 0.77 0.73 0.70 0.70 0.73
0.88 0.89 0.97 1.04 1.09 1.10 1.20 1.23 1.22 1.24 1.18 1.15 1.18 1.20 1.22 1.25 1.33 1.37 1.37 1.28 1.20 1.22 1.21 1.19 1.20 1.21 1.23 1.22 1.14 1.13 1.13 1.07 1.02 0.99 0.93 0.91 0.90 0.87 0.83 0.77 0.73 0.70 0.72
0.91 0.92 1.02 0.98 0.94 0.98 1.08 1.19 1.17 1.22 1.19 1.13 1.10 1.05 1.04 1.02 1.01 1.14 1.25 1.29 1.29 1.25 1.23 1.18 1.17 1.15 1.14 1.15 1.16 1.10 1.00 1.00 0.93 0.94 0.91 0.89 0.86 0.81 0.74 0.71 0.67 0.67 0.71
0.93 0.85 0.97 0.98 0.84 0.92 0.87 0.91 0.97 1.03 1.07 1.15 1.05 1.08 1.10 1.05 0.96 0.91 0.95 1.03 1.11 1.13 1.16 1.16 1.14 1.13 1.12 1.13 1.13 1.07 1.07 1.05 1.00 0.93 0.91 0.89 0.86 0.81 0.79 0.77 0.78 0.79 0.77
0.92 0.76 0.80 0.92 0.88 0.91 0.90 0.88 0.79 0.79 0.84 0.96 0.98 0.86 1.01 1.06 1.03 1.02 1.02 1.08 1.10 1.04 1.03 1.08 1.14 1.15 1.15 1.13 1.11 1.10 1.11 1.08 1.09 1.08 1.04 1.03 1.02 1.00 0.99 0.96 0.93 0.91 0.89
1.00 0.87 0.77 0.86 0.93 0.93 0.91 0.93 0.92 0.87 0.82 0.83 0.90 0.69 0.76 0.99 1.13 0.95 0.92 0.99 1.06 1.06 1.16 1.15 1.06 1.07 1.03 1.01 1.07 1.10 1.11 1.11 1.11 1.12 1.08 1.07 1.06 1.04 1.03 1.01 0.99 0.97 0.97
0.94 1.02 0.95 0.96 0.96 0.87 0.84 0.98 1.03 1.01 1.12 1.00 1.02 0.93 0.77 0.78 0.94 1.12 1.14 1.10 1.04 1.03 1.04 1.08 1.05 1.01 1.03 1.07 1.08 1.08 1.08 1.07 1.07 1.04 1.05 1.02 1.01 1.02 1.00 0.97 0.97 0.96 0.95
0.82 0.76 0.84 0.88 0.85 0.86 0.89 0.89 0.92 0.89 0.99 1.06 1.05 1.00 0.96 0.91 0.93 0.96 0.98 1.11 1.21 1.21 1.14 1.14 1.09 1.09 1.12 0.99 0.99 0.98 0.98 0.99 0.97 0.97 1.01 1.02 0.99 0.94 0.91 0.90 0.90 0.90 0.89
0.89 0.85 0.81 0.75 0.75 0.77 0.77 0.77 0.80 0.88 0.89 0.90 0.91 0.91 0.93 0.93 0.93 0.94 0.95 0.97 0.96 0.97 0.96 0.98 0.95 0.93 0.94 0.97 0.97 0.96 0.98 1.00 1.01 1.01 1.00 0.98 0.92 0.88 0.88 0.87 0.87 0.85 0.82

GFSGL_prec_pwat_036.txt.gz
Precipitable_Water
1.16 1.21 1.27 1.36 1.44 1.45 1.44 1.47 1.50 1.53 1.53 1.50 1.48 1.43 1.37 1.28 1.13 0.98 1.10 1.09 1.09 1.14 1.23 1.29 1.40 1.36 1.23 1.27 1.23 1.26 1.23 1.23 1.16 1.19 1.34 1.47 1.50 1.46 1.44 1.47 1.32 1.11 1.17
1.31 1.32 1.36 1.38 1.39 1.39 1.42 1.46 1.50 1.42 1.44 1.40 1.33 1.21 1.04 0.95 1.04 1.04 1.01 1.17 1.21 1.26 1.33 1.37 1.42 1.33 1.22 1.29 1.24 1.27 1.24 1.27 1.22 1.21 1.45 1.44 1.44 1.48 1.39 1.38 1.26 1.21 1.16
1.33 1.33 1.32 1.34 1.36 1.36 1.32 1.34 1.30 1.24 1.18 1.10 0.94 0.92 0.96 1.02 1.05 1.07 1.10 1.24 1.38 1.42 1.44 1.38 1.40 1.27 1.21 1.28 1.30 1.32 1.34 1.35 1.30 1.27 1.30 1.43 1.43 1.41 1.35 1.37 1.21 1.16 1.19
1.31 1.30 1.28 1.26 1.24 1.23 1.20 1.14 1.08 0.96 0.87 0.88 0.92 0.98 1.08 1.14 1.17 1.25 1.36 1.39 1.44 1.49 1.45 1.41 1.40 1.26 1.24 1.25 1.30 1.29 1.35 1.32 1.32 1.25 1.18 1.18 1.25 1.31 1.23 1.19 1.12 1.20 1.14
1.24 1.18 1.16 1.17 1.15 1.05 0.96 0.91 0.88 0.85 0.89 0.96 1.09 1.14 1.11 1.13 1.28 1.34 1.34 1.38 1.40 1.44 1.42 1.46 1.44 1.35 1.34 1.29 1.29 1.31 1.34 1.31 1.25 1.16 1.09 1.07 1.09 1.12 1.05 1.18 1.03 1.08 1.23
1.15 1.10 1.09 1.02 0.92 0.90 0.88 0.86 0.89 0.99 1.08 1.13 1.10 1.08 1.18 1.25 1.32 1.29 1.33 1.41 1.38 1.34 1.34 1.44 1.41 1.37 1.38 1.35 1.36 1.40 1.43 1.30 1.18 1.11 1.03 0.98 1.04 1.10 1.16 1.19 1.13 0.99 1.00
1.04 1.00 0.91 0.87 0.88 0.92 0.96 1.02 1.06 1.11 1.12 1.10 1.09 1.14 1.31 1.26 1.23 1.26 1.40 1.47 1.36 1.42 1.42 1.40 1.37 1.38 1.32 1.27 1.29 1.38 1.42 1.39 1.29 1.20 1.09 1.10 1.09 1.16 1.17 1.17 1.22 1.15 1.09
0.93 0.87 0.91 0.93 0.97 1.02 1.04 1.13 1.11 1.11 1.08 1.19 1.23 1.30 1.22 1.20 1.24 1.37 1.45 1.46 1.42 1.40 1.37 1.45 1.40 1.30 1.26 1.21 1.27 1.28 1.32 1.33 1.29 1.29 1.27 1.27 1.30 1.30 1.28 1.25 1.24 1.25 1.29
0.90 0.86 0.97 1.01 1.02 1.06 1.04 1.13 1.07 1.06 1.20 1.26 1.25 1.32 1.20 1.18 1.34 1.43 1.46 1.43 1.40 1.38 1.35 1.35 1.38 1.27 1.27 1.29 1.29 1.24 1.26 1.28 1.35 1.35 1.36 1.37 1.39 1.38 1.36 1.32 1.22 1.14 1.07
0.88 0.93 1.00 1.00 0.99 1.06 1.03 1.02 1.09 1.14 1.17 1.27 1.35 1.33 1.20 1.18 1.28 1.43 1.44 1.41 1.35 1.37 1.40 1.37 1.37 1.32 1.30 1.35 1.31 1.27 1.19 1.21 1.23 1.26 1.29 1.33 1.38 1.38 1.46 1.46 1.32 1.14 1.08
0.96 1.03 1.06 1.04 1.00 1.11 1.03 1.05 1.11 1.16 1.21 1.24 1.25 1.25 1.19 1.27 1.40 1.46 1.48 1.44 1.37 1.35 1.36 1.33 1.33 1.36 1.36 1.33 1.33 1.29 1.24 1.28 1.24 1.25 1.25 1.29 1.32 1.36 1.39 1.43 1.39 1.28 1.17
1.01 1.00 1.03 1.07 1.11 1.12 1.02 1.07 1.11 1.19 1.14 1.24 1.21 1.16 1.18 1.39 1.43 1.46 1.49 1.47 1.44 1.34 1.30 1.36 1.34 1.36 1.36 1.33 1.32 1.31 1.30 1.30 1.28 1.26 1.25 1.26 1.30 1.31 1.35 1.40 1.42 1.41 1.43
1.03 1.00 1.01 1.04 1.09 1.16 1.19 1.16 1.13 1.17 1.17 1.18 1.17 1.16 1.19 1.34 1.40 1.44 1.45 1.42 1.37 1.30 1.31 1.32 1.33 1.34 1.34 1.30 1.29 1.27 1.30 1.28 1.26 1.22 1.22 1.25 1.30 1.34 1.39 1.37 1.40 1.40 1.39
1.00 0.95 1.01 1.05 1.19 1.24 1.26 1.27 1.22 1.14 1.20 1.25 1.25 1.28 1.22 1.27 1.34 1.39 1.38 1.32 1.30 1.30 1.31 1.32 1.32 1.32 1.33 1.28 1.26 1.27 1.28 1.27 1.25 1.23 1.24 1.30 1.35 1.32 1.30 1.33 1.28 1.29 1.19
0.93 0.96 0.98 1.06 1.23 1.35 1.39 1.41 1.42 1.40 1.38 1.35 1.30 1.31 1.20 1.20 1.30 1.38 1.34 1.26 1.27 1.29 1.29 1.29 1.26 1.24 1.21 1.24 1.26 1.26 1.27 1.28 1.25 1.30 1.30 1.30 1.30 1.29 1.29 1.28 1.20 1.09 0.92
0.87 0.90 0.91 1.05 1.22 1.23 1.28 1.34 1.38 1.37 1.38 1.38 1.35 1.35 1.28 1.35 1.35 1.37 1.32 1.27 1.27 1.30 1.28 1.21 1.19 1.21 1.21 1.23 1.23 1.25 1.28 1.28 1.28 1.29 1.29 1.28 1.25 1.24 1.21 1.15 1.06 0.86 0.79
0.96 0.90 1.07 1.15 1.14 1.17 1.20 1.12 1.15 1.27 1.32 1.30 1.21 1.25 1.31 1.32 1.35 1.34 1.28 1.28 1.29 1.31 1.21 1.17 1.15 1.17 1.21 1.28 1.23 1.25 1.23 1.30 1.34 1.29 1.27 1.27 1.22 1.12 0.98 0.89 0.86 0.81 0.72
0.96 1.04 1.04 1.08 1.11 1.18 1.22 1.17 1.12 1.09 1.04 1.09 1.22 1.25 1.33 1.36 1.37 1.34 1.26 1.28 1.24 1.26 1.24 1.18 1.21 1.25 1.22 1.20 1.24 1.27 1.26 1.28 1.27 1.25 1.22 1.14 1.08 1.00 0.91 0.85 0.79 0.72 0.69
0.83 0.99 1.13 1.13 1.16 1.15 1.23 1.19 1.17 1.16 1.12 1.12 1.19 1.26 1.32 1.35 1.37 1.35 1.29 1.24 1.21 1.18 1.19 1.19 1.23 1.28 1.29 1.24 1.29 1.24 1.26 1.22 1.24 1.18 1.12 1.04 0.94 0.90 0.84 0.79 0.75 0.71 0.69
0.94 1.18 1.18 1.09 1.09 1.20 1.19 1.20 1.18 1.16 1.06 1.00 1.00 1.07 1.22 1.30 1.28 1.28 1.29 1.27 1.22 1.22 1.19 1.16 1.20 1.24 1.26 1.17 1.21 1.15 1.12 1.02 1.02 0.98 0.94 0.92 0.96 0.96 0.89 0.87 0.81 0.73 0.71
0.89 1.11 1.09 0.98 1.07 1.07 1.15 1.14 1.19 1.15 1.14 1.08 1.04 1.05 1.01 0.97 1.08 1.17 1.24 1.27 1.26 1.23 1.20 1.19 1.16 1.15 1.16 1.14 1.14 1.10 1.03 0.97 0.98 0.98 0.98 0.94 0.86 0.79 0.78 0.75 0.75 0.74 0.72
0.93 0.87 1.13 0.94 1.11 1.03 0.95 0.92 1.06 1.13 1.12 1.03 0.97 1.06 1.08 1.03 1.00 1.00 1.04 1.05 1.15 1.18 1.19 1.21 1.18 1.21 1.19 1.18 1.15 1.12 1.08 1.03 1.02 1.00 0.98 0.96 0.95 0.93 0.91 0.89 0.87 0.86 0.83
1.00 0.77 0.94 1.09 0.93 0.93 1.04 0.91 0.90 1.00 0.98 0.91 0.87 0.84 1.03 1.08 1.16 1.14 1.05 1.17 1.16 1.30 1.29 1.19 1.16 1.16 1.15 1.16 1.24 1.24 1.15 1.18 1.20 1.21 1.11 1.19 1.14 1.09 1.09 1.03 1.05 1.06 1.01
1.09 0.92 0.91 1.13 1.01 1.01 1.04 1.01 0.98 0.97 1.03 0.97 0.92 0.94 1.04 1.23 1.15 1.24 1.18 1.11 1.02 1.03 1.12 1.04 0.99 1.02 1.12 1.13 1.12 0.99 1.01 1.05 1.19 1.19 1.23 1.13 1.03 0.95 1.03 1.07 1.03 1.03 0.98
1.18 1.01 0.87 0.99 0.97 0.88 0.89 1.05 1.02 1.03 1.04 0.97 0.92 0.88 0.79 0.89 1.03 1.12 1.14 1.09 1.06 1.10 0.99 0.95 0.99 1.05 0.97 0.97 0.95 0.94 0.99 1.00 1.02 1.04 1.06 1.10 1.08 1.06 1.08 1.03 0.97 0.97 0.97
0.83 0.94 0.93 0.93 0.88 0.82 0.79 0.83 0.89 0.90 0.91 1.00 0.98 0.94 0.90 0.85 0.86 0.91 0.94 0.95 0.98 1.00 1.00 1.00 0.94 0.98 0.96 0.94 1.00 1.01 1.02 1.04 1.04 1.06 1.06 1.03 0.97 0.95 0.94 0.95 0.96 0.95 0.94